Content
SEND FEEDBACK

Daily
Averages
Monthly
Summary
United States of America

BURLINGTON, NORTH DAKOTA


Home > North America > United States > North Dakota
Elevation: 1679 feet     Latitude: 48 16N     Longitude: 101 17W

WEATHER
 
SELECT A DAY
Number of Records: 200,310;   Date Range: 1/1/95 - 9/22/14
 
SHARE

PRINT THIS DATA

[ ← Previous Day ]
WEATHER ALMANAC - MARCH 24, 2014
[ Next Day → ]
[ °C ]   °F
Weather ElementAverageHighLow
Temperature18.3 °F27 °F (11:54 am)10 °F (11:54 pm)
Dewpoint4.2 °F10 °F (1:54 am)1 °F (7:54 pm)
Humidity55.3 %70 % (11:54 pm)41 % (11:54 am)
Barometer30.38 in30.43 in (9:54 pm)30.34 in (12:54 pm)
Wind Speed19.5 mph29.9 mph (3:54 pm)
Wind Gust40.3 mph (4:54 pm)
Weather ElementAverage
Visibility9.6 mi
Wind DirectionWNW (285 °)

Weather ElementTotal
Precipitation---
Heating Degree Days46.5 (Base 65)
Averaged from 20 records on March 24, 2014
WEATHER CONDITIONS BREAKOUT
WIND DIRECTION BREAKOUT
WEATHER BY HOUR - MARCH 24, 2014
[ °C ]   °F
Local TimeTemperatureDewpointHumidityBarometerVisibilityWind DirectionWind SpeedGust SpeedPrecipitationEventsConditions
1:54 AM19.0 °F10.0 °F68 %30.37 in10.0 miWNW (290°)10.4 mphOvercast
2:54 AM15.1 °F5.0 °F64 %30.38 in10.0 miWNW (300°)13.8 mphClear
4:54 AM14.0 °F3.9 °F64 %30.38 in10.0 miWest (270°)13.8 mphOvercast
5:54 AM12.9 °F3.0 °F65 %30.38 in10.0 miWest (260°)11.5 mphClear
6:54 AM12.9 °F3.0 °F65 %30.38 in10.0 miWSW (250°)10.4 mphMostly Cloudy
7:54 AM12.9 °F3.0 °F65 %30.37 in10.0 miWSW (250°)12.7 mphScattered Clouds
8:54 AM18.0 °F6.1 °F60 %30.36 in10.0 miWest (270°)13.8 mphClear
9:54 AM21.0 °F8.1 °F57 %30.37 in10.0 miWest (280°)21.9 mph29.9 mphClear
10:54 AM25.0 °F7.0 °F46 %30.37 in10.0 miWest (270°)24.2 mph31.1 mphClear
11:54 AM27.0 °F6.1 °F41 %30.35 in10.0 miWest (280°)23.0 mph32.2 mphClear
12:54 PM27.0 °F7.0 °F43 %30.34 in9.0 miWNW (300°)24.2 mph33.4 mph0.00 inSnowLight Snow
2:54 PM26.1 °F6.1 °F43 %30.35 in9.0 miWNW (290°)27.6 mph34.5 mph0.00 inSnowLight Snow
3:54 PM24.1 °F3.9 °F42 %30.35 in9.0 miWNW (290°)29.9 mph39.1 mph0.00 inSnowLight Snow
4:54 PM21.9 °F3.0 °F44 %30.36 in9.0 miWNW (300°)26.5 mph40.3 mph0.00 inSnowLight Snow
5:54 PM21.0 °F1.9 °F44 %30.37 in9.0 miWNW (300°)23.0 mph38.0 mph0.00 inSnowLight Snow
6:54 PM18.0 °F1.9 °F50 %30.39 in9.0 miWNW (290°)23.0 mph34.5 mph0.00 inSnowLight Snow
7:54 PM16.0 °F1.0 °F52 %30.40 in9.0 miWNW (300°)26.5 mph33.4 mph0.00 inClear
8:54 PM12.9 °F1.0 °F59 %30.41 in10.0 miNW (310°)18.4 mph27.6 mphClear
9:54 PM10.9 °F1.0 °F64 %30.43 in9.0 miWNW (300°)21.9 mph33.4 mph0.00 inSnowLight Snow
11:54 PM10.0 °F1.9 °F70 %30.43 in10.0 miWNW (300°)13.8 mph23.0 mphClear
Hourly data recorded from KMOT, located miles away from Burlington, North Dakota







STORIES FROM OUR PARTNERS